Location: Ripley
(48.3812°N, 115.4473°W)
Time: 08:05:51
(UTC+00:00)

EO-79 - Pass Details

Date: 05 July 2022
Orbit: 588 x 603 km, 98.0° (Epoch: 15 August)

Event Time Altitude Azimuth Distance (km) Brightness Sun altitude
Rises 09:39:31 0° 12° (NNE) 2,860 ? -14.5°
Reaches altitude 10° 09:41:42 10° 11° (NNE) 1,955 ? -14.3°
Maximum altitude 09:45:56 79° 287° (WNW) 620 ? -14.0°
Enters shadow 09:48:37 22° 201° (SSW) 1,322 ? -13.8°
